Hourly Data Report for October 09, 2015

All times are specified in Local Standard Time (LST). Add 1 hour to adjust for Daylight Saving Time where and when it is observed.

RANKIN INLET A
NUNAVUT

62°48'38.000" N
92°06'53.000" W
32.30 m
2303405
71083
YRT

Download Data

Hourly Data (October 2015)
Hourly Data Report for October 9, 2015
Temp Definition
°C
Dew Point Temp Definition
°C
Rel Hum Definition
%
Wind Dir Definition
10's deg

Wind Spd Definition
km/h
Visibility Definition
km
Stn Press Definition
kPa
Hmdx Definition


Wind Chill Definition


Weather Definition


TIME
00:00 Legend Double Dagger -5.3 -7.1 87 31 38 4.8 100.68   -14 Snow
01:00 Legend Double Dagger -5.4 -7.1 88 32 42 4.8 100.70   -15 Snow
02:00 Legend Double Dagger -6.0 -8.6 82 31 29 24.1 100.73   -14 Snow
03:00 Legend Double Dagger -5.9 -8.7 81 31 30 24.1 100.72   -14 Snow
04:00 Legend Double Dagger -6.2 -8.3 85 31 30 24.1 100.73   -15 Snow
05:00 Legend Double Dagger -6.9 -9.3 83 31 24 24.1 100.73   -15 Snow
06:00 Legend Double Dagger -7.0 -9.0 86 31 25 24.1 100.75   -15 Snow
07:00 Legend Double Dagger -6.7 -9.9 78 30 19 24.1 100.74   -14 Snow
08:00 Legend Double Dagger -6.6 -9.5 80 30 26 24.1 100.72   -15 Snow
09:00 Legend Double Dagger -6.5 -9.6 79 30 23 24.1 100.71   -14 Snow
10:00 Legend Double Dagger -5.8 -9.0 78 29 26 24.1 100.70   -14 LegendNANA
11:00 Legend Double Dagger -4.9 -8.0 79 31 27 24.1 100.67   -12 LegendNANA
12:00 Legend Double Dagger -5.0 -8.9 74 31 31 24.1 100.66   -13 Mostly Cloudy
13:00 Legend Double Dagger -5.2 -8.1 80 33 31 9.7 100.66   -13 Snow Showers
14:00 Legend Double Dagger -5.0 -9.1 73 32 38 24.1 100.66   -14 Snow Showers
15:00 Legend Double Dagger -5.2 -8.8 76 32 39 16.1 100.67   -14 Snow Showers
16:00 Legend Double Dagger -5.5 -9.4 74 31 34 24.1 100.70   -14 Snow Showers
17:00 Legend Double Dagger -5.2 -8.5 78 34 38 16.1 100.72   -14 Snow Showers
18:00 Legend Double Dagger -5.8 -9.6 75 33 37 24.1 100.76   -15 Mostly Cloudy
19:00 Legend Double Dagger -5.3 -9.1 75 32 38 24.1 100.79   -14 LegendNANA
20:00 Legend Double Dagger -5.2 -8.8 76 34 31 24.1 100.79   -13 LegendNANA
21:00 Legend Double Dagger -5.7 -9.3 76 35 34 24.1 100.78   -14 Mostly Cloudy
22:00 Legend Double Dagger -6.5 -9.6 79 35 27 24.1 100.77   -15 LegendNANA
23:00 Legend Double Dagger -7.6 -9.9 84 34 21 24.1 100.75   -15 LegendNANA

Notes on Data Quality.

Legend

  • E = Estimated
  • M = Missing
  • NA = Not Available
  • ‡ = Partner data that is not subject to review by the National Climate Archives
Date modified: